TimePDT,TemperatureF,Dew PointF,Humidity,Sea Level PressureIn,VisibilityMPH,Wind Direction,Wind SpeedMPH,Gust SpeedMPH,PrecipitationIn,Events,Conditions,WindDirDegrees,DateUTC
12:23 AM,51.8,48.2,88,29.98,4.0,SSW,5.8,-,N/A,,Mostly Cloudy,210,2013-08-06 07:23:00
12:56 AM,51.1,50.0,96,30.00,1.0,SW,5.8,-,N/A,,Overcast,220,2013-08-06 07:56:00
1:56 AM,50.0,50.0,100,30.01,0.8,SSW,5.8,-,N/A,,Mist,200,2013-08-06 08:56:00
2:56 AM,50.0,50.0,100,30.01,0.8,SSW,9.2,-,N/A,,Mist,210,2013-08-06 09:56:00
3:56 AM,50.0,50.0,100,30.01,0.5,SSW,9.2,-,N/A,Fog,Fog,210,2013-08-06 10:56:00
4:56 AM,50.0,50.0,100,30.01,0.5,SSW,6.9,-,N/A,Fog,Fog,210,2013-08-06 11:56:00
5:56 AM,50.0,50.0,100,30.02,0.5,SW,5.8,-,0.00,Fog,Light Drizzle,220,2013-08-06 12:56:00
6:56 AM,51.1,50.0,96,30.03,0.5,WSW,5.8,-,0.00,Fog,Light Drizzle,240,2013-08-06 13:56:00
7:56 AM,51.1,51.1,100,30.04,0.5,SW,6.9,-,0.00,Fog,Fog,230,2013-08-06 14:56:00
8:56 AM,51.1,51.1,100,30.05,0.2,SW,8.1,-,N/A,Fog,Fog,230,2013-08-06 15:56:00
9:56 AM,52.0,51.1,97,30.05,0.2,WSW,6.9,-,N/A,,Overcast,250,2013-08-06 16:56:00
10:33 AM,53.6,51.8,94,30.04,0.2,SSW,9.2,-,N/A,,Overcast,210,2013-08-06 17:33:00
10:56 AM,53.1,50.0,89,30.05,0.5,SSW,9.2,-,N/A,,Overcast,210,2013-08-06 17:56:00
11:26 AM,53.6,50.0,88,30.03,1.0,West,4.6,-,N/A,,Mostly Cloudy,280,2013-08-06 18:26:00
11:56 AM,54.0,50.0,86,30.04,0.5,Variable,4.6,-,N/A,,Mostly Cloudy,0,2013-08-06 18:56:00
12:56 PM,55.0,50.0,83,30.04,0.5,West,5.8,-,N/A,,Haze,280,2013-08-06 19:56:00
1:56 PM,55.0,51.1,86,30.03,7.0,West,4.6,-,N/A,,Mostly Cloudy,270,2013-08-06 20:56:00
2:56 PM,55.9,50.0,80,30.02,9.0,West,3.5,-,N/A,,Scattered Clouds,280,2013-08-06 21:56:00
3:56 PM,57.0,51.1,81,30.01,10.0,West,4.6,-,N/A,,Scattered Clouds,260,2013-08-06 22:56:00
4:56 PM,59.0,52.0,78,29.99,10.0,WSW,6.9,-,N/A,,Scattered Clouds,240,2013-08-06 23:56:00
5:56 PM,57.9,51.1,78,29.99,10.0,WSW,6.9,-,N/A,,Scattered Clouds,240,2013-08-07 00:56:00
6:56 PM,57.0,51.1,81,29.98,10.0,WSW,5.8,-,N/A,,Scattered Clouds,240,2013-08-07 01:56:00
7:56 PM,55.9,51.1,84,29.97,10.0,WSW,8.1,-,N/A,,Scattered Clouds,240,2013-08-07 02:56:00
8:56 PM,54.0,51.1,90,29.97,10.0,WSW,5.8,-,N/A,,Scattered Clouds,240,2013-08-07 03:56:00
9:56 PM,54.0,51.1,90,29.98,10.0,SW,4.6,-,N/A,,Scattered Clouds,230,2013-08-07 04:56:00
10:56 PM,53.1,50.0,89,29.98,10.0,WSW,4.6,-,N/A,,Scattered Clouds,240,2013-08-07 05:56:00
11:56 PM,53.1,51.1,93,29.98,10.0,SSW,5.8,-,N/A,,Partly Cloudy,200,2013-08-07 06:56:00